Hot Springs, VA

8:40 PM EST on December 07, 2016 (GMT -0500)
Ingalls

Weather History for KHSP - December, 2012

Change the Weather History Date:

Monday, December 3, 2012

  Actual Average Record
Temperature  
Mean Temperature 54 °F -  
Max Temperature 59 °F 40 °F 59 °F (2012)
Min Temperature 48 °F 27 °F 10 °F (2000)
Degree Days  
Heating Degree Days 12    
Growing Degree Days 4 (Base 50)    
Moisture  
Dew Point 49 °F    
Average Humidity 85    
Maximum Humidity 94    
Minimum Humidity 77    
Precipitation  
Precipitation 0.00 in - - ()
Sea Level Pressure  
Sea Level Pressure 30.31 in    
Wind  
Wind Speed 13 mph (WSW)    
Max Wind Speed 20 mph    
Max Gust Speed 29 mph    
Visibility 10 miles    
Events      
Averages and records for this station are not official NWS values.
T = Trace of Precipitation, MM = Missing Value Source: NWS Daily Summary

Daily Weather History Graph

Daily Weather History Graph

Search for Another Location

Airport or City:

Trip Planner

Search our weather history database for the weather conditions in past years. The results will help you decide how hot, cold, wet, or windy it might be!

Date:

Astronomy

Dec. 03, 2012 Rise Set
Actual Time 7:18 AM EST 4:59 PM EST
Civil Twilight 6:49 AM EST 5:28 PM EST
Nautical Twilight 6:16 AM EST 6:01 PM EST
Astronomical Twilight 5:45 AM EST 6:33 PM EST
Moon 9:42 PM EST (12/3) 10:43 AM EST (12/3)
Length of Visible Light 10h 39m
Length of Day
9h 41m
Waning Gibbous, 78% of the Moon is Illuminated
Dec 3
Waning Gibbous
Dec 6
Last Quarter
Dec 13
New
Dec 20
First Quarter
Dec 28
Full

Hourly Weather History & Observations

Time (EST) Temp. Dew Point Humidity Pressure Visibility Wind Dir Wind Speed Gust Speed Precip Events Conditions
12:15 AM 51.8 °F 46.4 °F 82% 30.27 in 10.0 mi West 19.6 mph 27.6 mph N/A   Scattered Clouds
12:35 AM 51.8 °F 46.4 °F 82% 30.27 in 10.0 mi West 19.6 mph 27.6 mph N/A   Mostly Cloudy
12:55 AM 51.8 °F 46.4 °F 82% 30.27 in 10.0 mi West 18.4 mph 26.5 mph N/A   Overcast
1:15 AM 51.8 °F 46.4 °F 82% 30.27 in 10.0 mi West 16.1 mph 28.8 mph N/A   Overcast
1:35 AM 51.8 °F 46.4 °F 82% 30.27 in 10.0 mi West 18.4 mph 24.2 mph N/A   Overcast
1:55 AM 50.0 °F 46.4 °F 87% 30.28 in 10.0 mi West 17.3 mph 23.0 mph N/A   Mostly Cloudy
2:15 AM 50.0 °F 46.4 °F 87% 30.28 in 10.0 mi West 17.3 mph 25.3 mph N/A   Overcast
2:35 AM 50.0 °F 46.4 °F 87% 30.28 in 10.0 mi West 16.1 mph 23.0 mph N/A   Mostly Cloudy
2:55 AM 50.0 °F 46.4 °F 87% 30.28 in 10.0 mi West 15.0 mph 23.0 mph N/A   Overcast
3:15 AM 50.0 °F 46.4 °F 87% 30.28 in 10.0 mi West 12.7 mph 19.6 mph N/A   Overcast
3:35 AM 50.0 °F 46.4 °F 87% 30.28 in 10.0 mi West 16.1 mph - N/A   Mostly Cloudy
3:55 AM 48.2 °F 46.4 °F 93% 30.28 in 10.0 mi West 13.8 mph 19.6 mph N/A   Mostly Cloudy
4:15 AM 50.0 °F 46.4 °F 87% 30.27 in 10.0 mi West 15.0 mph 18.4 mph N/A   Overcast
4:35 AM 50.0 °F 46.4 °F 87% 30.27 in 10.0 mi West 13.8 mph 20.7 mph N/A   Overcast
4:55 AM 50.0 °F 48.2 °F 94% 30.27 in 10.0 mi West 13.8 mph 20.7 mph N/A   Overcast
5:15 AM 48.2 °F 46.4 °F 93% 30.27 in 10.0 mi West 16.1 mph 20.7 mph N/A   Mostly Cloudy
5:35 AM 50.0 °F 48.2 °F 94% 30.28 in 10.0 mi West 11.5 mph 19.6 mph N/A   Mostly Cloudy
5:55 AM 50.0 °F 48.2 °F 94% 30.28 in 10.0 mi West 17.3 mph - N/A   Overcast
6:15 AM 50.0 °F 48.2 °F 94% 30.28 in 10.0 mi West 13.8 mph - N/A   Overcast
6:35 AM 50.0 °F 48.2 °F 94% 30.29 in 10.0 mi West 13.8 mph - N/A   Overcast
6:55 AM 50.0 °F 48.2 °F 94% 30.29 in 10.0 mi West 11.5 mph - N/A   Overcast
7:15 AM 50.0 °F 48.2 °F 94% 30.30 in 10.0 mi West 9.2 mph - N/A   Overcast
7:35 AM 50.0 °F 48.2 °F 94% 30.31 in 10.0 mi West 13.8 mph - N/A   Overcast
7:55 AM 51.8 °F 48.2 °F 88% 30.32 in 10.0 mi West 15.0 mph 18.4 mph N/A   Overcast
8:15 AM 51.8 °F 48.2 °F 88% 30.32 in 10.0 mi West 12.7 mph - N/A   Mostly Cloudy
8:35 AM 51.8 °F 48.2 °F 88% 30.33 in 10.0 mi West 12.7 mph 17.3 mph N/A   Mostly Cloudy
8:55 AM 51.8 °F 50.0 °F 94% 30.34 in 10.0 mi West 15.0 mph - N/A   Overcast
9:15 AM 53.6 °F 50.0 °F 88% 30.33 in 10.0 mi WNW 11.5 mph 23.0 mph N/A   Mostly Cloudy
9:35 AM 51.8 °F 50.0 °F 94% 30.34 in 10.0 mi West 8.1 mph - N/A   Mostly Cloudy
9:55 AM 53.6 °F 50.0 °F 88% 30.34 in 10.0 mi West 8.1 mph - N/A   Mostly Cloudy
10:15 AM 53.6 °F 50.0 °F 88% 30.35 in 10.0 mi West 8.1 mph - N/A   Overcast
10:35 AM 53.6 °F 50.0 °F 88% 30.35 in 10.0 mi West 8.1 mph - N/A   Overcast
10:55 AM 53.6 °F 50.0 °F 88% 30.35 in 10.0 mi West 8.1 mph - N/A   Overcast
11:15 AM 55.4 °F 51.8 °F 88% 30.34 in 10.0 mi West 9.2 mph - N/A   Overcast
11:35 AM 55.4 °F 50.0 °F 82% 30.33 in 10.0 mi West 11.5 mph - N/A   Overcast
11:55 AM 57.2 °F 51.8 °F 82% 30.33 in 10.0 mi West 10.4 mph - N/A   Mostly Cloudy
12:15 PM 59.0 °F 51.8 °F 77% 30.32 in 10.0 mi West 9.2 mph - N/A   Mostly Cloudy
12:35 PM 57.2 °F 51.8 °F 82% 30.32 in 10.0 mi West 6.9 mph - N/A   Mostly Cloudy
12:55 PM 57.2 °F 51.8 °F 82% 30.32 in 10.0 mi West 4.6 mph - N/A   Overcast
1:15 PM 57.2 °F 50.0 °F 77% 30.32 in 10.0 mi WNW 4.6 mph - N/A   Overcast
1:35 PM 57.2 °F 51.8 °F 82% 30.32 in 10.0 mi NW 3.5 mph - N/A   Overcast
1:55 PM 57.2 °F 51.8 °F 82% 30.31 in 10.0 mi North 3.5 mph - N/A   Overcast
2:15 PM 57.2 °F 51.8 °F 82% 30.31 in 10.0 mi Calm Calm - N/A   Overcast
2:35 PM 57.2 °F 51.8 °F 82% 30.31 in 10.0 mi WNW 4.6 mph - N/A   Overcast
2:55 PM 57.2 °F 51.8 °F 82% 30.31 in 10.0 mi Calm Calm - N/A   Overcast
3:15 PM 59.0 °F 51.8 °F 77% 30.31 in 10.0 mi WSW 5.8 mph - N/A   Overcast
3:35 PM 57.2 °F 50.0 °F 77% 30.31 in 10.0 mi SW 5.8 mph - N/A   Mostly Cloudy
3:55 PM 57.2 °F 50.0 °F 77% 30.31 in 10.0 mi SW 4.6 mph - N/A   Scattered Clouds
4:15 PM 55.4 °F 50.0 °F 82% 30.31 in 10.0 mi SSW 4.6 mph - N/A   Clear
4:35 PM 55.4 °F 50.0 °F 82% 30.31 in 10.0 mi SSW 3.5 mph - N/A   Clear
4:55 PM 55.4 °F 50.0 °F 82% 30.31 in 10.0 mi SW 4.6 mph - N/A   Clear
5:15 PM 53.6 °F 48.2 °F 82% 30.32 in 10.0 mi SW 6.9 mph - N/A   Clear
5:35 PM 53.6 °F 48.2 °F 82% 30.32 in 10.0 mi SW 6.9 mph - N/A   Clear
5:55 PM 53.6 °F 48.2 °F 82% 30.32 in 10.0 mi SW 6.9 mph - N/A   Clear
6:15 PM 53.6 °F 48.2 °F 82% 30.33 in 10.0 mi SSW 4.6 mph - N/A   Clear
6:35 PM 53.6 °F 48.2 °F 82% 30.33 in 10.0 mi SSW 5.8 mph - N/A   Clear
6:55 PM 55.4 °F 48.2 °F 77% 30.33 in 10.0 mi SSW 6.9 mph - N/A   Clear
7:15 PM 55.4 °F 50.0 °F 82% 30.33 in 10.0 mi SSW 6.9 mph - N/A   Clear
7:35 PM 53.6 °F 48.2 °F 82% 30.33 in 10.0 mi SSW 5.8 mph - N/A   Clear
7:55 PM 53.6 °F 48.2 °F 82% 30.33 in 10.0 mi SSW 6.9 mph - N/A   Clear
8:15 PM 53.6 °F 48.2 °F 82% 30.33 in 10.0 mi South 5.8 mph - N/A   Clear
8:35 PM 53.6 °F 48.2 °F 82% 30.33 in 10.0 mi SSW 6.9 mph - N/A   Clear
8:55 PM 53.6 °F 48.2 °F 82% 30.34 in 10.0 mi SSW 6.9 mph - N/A   Clear
9:15 PM 53.6 °F 48.2 °F 82% 30.33 in 10.0 mi SSW 6.9 mph - N/A   Clear
9:35 PM 53.6 °F 50.0 °F 88% 30.33 in 10.0 mi South 9.2 mph - N/A   Clear
9:55 PM 53.6 °F 48.2 °F 82% 30.33 in 10.0 mi South 8.1 mph - N/A   Clear
10:15 PM 53.6 °F 50.0 °F 88% 30.33 in 10.0 mi South 6.9 mph - N/A   Clear
10:35 PM 53.6 °F 48.2 °F 82% 30.32 in 10.0 mi South 6.9 mph - N/A   Clear
10:55 PM 53.6 °F 48.2 °F 82% 30.32 in 10.0 mi South 8.1 mph - N/A   Clear
11:15 PM 53.6 °F 48.2 °F 82% 30.33 in 10.0 mi SSW 6.9 mph - N/A   Clear
11:35 PM 53.6 °F 48.2 °F 82% 30.33 in 10.0 mi SSW 8.1 mph - N/A   Clear
11:55 PM 53.6 °F 48.2 °F 82% 30.33 in 10.0 mi SW 6.9 mph - N/A   Clear